weather.gov     
National Weather Service

Terminal Aerodrome Forecast
NWS Homepage
This page is being discontinued on March 12, 2014.
The same data is available at this site. Please update your bookmarks.
Thank you, and we apologize for the inconvenience.
Please send an email to SR-SRH.Webmaster@noaa.gov with any concerns.


Current Version
Previous Version:    01  02  03  04  05  06  07  08  09  10  11  12  13  14  15  16  17  18  19  20  21  22  23  24  25  
[Printable]
342
FTUS42 KFFC 221742
TAFRYY
TAF
KRYY 221742Z 2218/2318 10010KT P6SM FEW250
     FM222100 09008KT P6SM BKN040
     FM230300 10006KT P6SM BKN025
     FM230800 08008KT 5SM -RA BR OVC008
     FM231400 09010G16KT 2SM SHRA BR OVC006 PROB30 2317/2318 2SM
      TSRA OVC015CB=




342
FTUS42 KFFC 221742
TAFRYY
TAF
KRYY 221742Z 2218/2318 10010KT P6SM FEW250
     FM222100 09008KT P6SM BKN040
     FM230300 10006KT P6SM BKN025
     FM230800 08008KT 5SM -RA BR OVC008
     FM231400 09010G16KT 2SM SHRA BR OVC006 PROB30 2317/2318 2SM
      TSRA OVC015CB=


U.S. Dept. of Commerce
NOAA National Weather Service
1325 East West Highway
Silver Spring, MD 20910
E-mail: w-nws.webmaster@noaa.gov
Page last modified: May 16, 2007
NATIONAL WEATHER SERVICE: for Safety, for Work, for Fun - FOR LIFE